Location: ?????
(37.7324°N, 23.9257°E)
Time: 08:08:13
(UTC+00:00)

SL-4 R/B - Pass Details

Date: 29 November 2020
Orbit: 428 x 664 km, 51.6° (Epoch: 17 January)

Event Time Altitude Azimuth Distance (km) Brightness Sun altitude
Exits shadow 04:15:46 - 338° (NNW) 1,843 4.3 -12.4°
Reaches altitude 10° 04:17:04 10° 356° (N) 1,696 4.3 -12.2°
Maximum altitude 04:17:26 10° 1° (N) 1,683 4.3 -12.1°
Drops below altitude 10° 04:17:48 10° 7° (N) 1,684 4.4 -12.0°
Sets 04:22:04 0° 55° (NE) 2,491 5.9 -11.2°
